• In Uzbekistan
  • List of Countries
  • For 7 days
  • Water Temperature
  • Satellite Maps
  • Weather Map
  • Weather Widgets
  • user-avatar
    Login

    Hourly Weather Abovyan

    Today, 17 January, Wednesday

    Time Temperature Precipitation Wind Pressure Humidity
    00:00 -3°C° 0 mm 1 mps 671 mmHg 74%
    01:00 -3°C° 0 mm 1 mps 671 mmHg 74%
    02:00 -3°C° 0 mm 1 mps 671 mmHg 74%
    03:00 -5°C° 0 mm 2 mps 670 mmHg 79%
    04:00 -5°C° 0 mm 2 mps 670 mmHg 79%
    05:00 -5°C° 0 mm 2 mps 669 mmHg 79%
    06:00 -6°C° 0 mm 2 mps 669 mmHg 79%
    07:00 -5°C° 0.1 mm 2 mps 669 mmHg 78%
    08:00 -4°C° 0.1 mm 2 mps 669 mmHg 77%
    09:00 -3°C° 0.1 mm 2 mps 669 mmHg 76%
    10:00 -3°C° 0.1 mm 2 mps 669 mmHg 74%
    11:00 -2°C° 0.1 mm 2 mps 669 mmHg 73%
    12:00 -1°C° 0.1 mm 3 mps 668 mmHg 71%
    13:00 -1°C° 0.1 mm 3 mps 668 mmHg 71%
    14:00 0°C° 0.1 mm 3 mps 668 mmHg 71%
    15:00 0°C° 0.1 mm 3 mps 667 mmHg 70%
    16:00 -1°C° 0 mm 2 mps 667 mmHg 73%
    17:00 -2°C° 0 mm 2 mps 667 mmHg 75%
    18:00 -3°C° 0 mm 2 mps 667 mmHg 77%
    19:00 -3°C° 0.1 mm 2 mps 667 mmHg 77%
    20:00 -3°C° 0.1 mm 2 mps 667 mmHg 77%
    21:00 -3°C° 0.1 mm 2 mps 667 mmHg 77%
    22:00 -3°C° 0.2 mm 2 mps 667 mmHg 78%
    23:00 -3°C° 0.2 mm 2 mps 667 mmHg 79%

    Tomorrow, 18 January, Thursday

    Time Temperature Precipitation Wind Pressure Humidity
    00:00 -3°C° 0.2 mm 2 mps 666 mmHg 80%
    01:00 -3°C° 0.4 mm 2 mps 666 mmHg 81%
    02:00 -3°C° 0.4 mm 2 mps 666 mmHg 83%
    03:00 -2°C° 0.4 mm 2 mps 665 mmHg 84%
    04:00 -2°C° 0.4 mm 3 mps 665 mmHg 85%
    05:00 -2°C° 0.4 mm 3 mps 665 mmHg 85%
    06:00 -4°C° 0.4 mm 3 mps 665 mmHg 86%
    07:00 -2°C° 0.2 mm 3 mps 665 mmHg 85%
    08:00 -1°C° 0.2 mm 3 mps 665 mmHg 83%
    09:00 -2°C° 0.2 mm 4 mps 665 mmHg 82%
    10:00 -1°C° 0.2 mm 4 mps 664 mmHg 79%
    11:00 0°C° 0.2 mm 5 mps 664 mmHg 77%
    12:00 +1°C° 0.2 mm 5 mps 663 mmHg 75%
    13:00 +1°C° 0.2 mm 5 mps 663 mmHg 74%
    14:00 +1°C° 0.2 mm 5 mps 662 mmHg 73%
    15:00 +2°C° 0.2 mm 5 mps 662 mmHg 73%
    16:00 +1°C° 0.1 mm 5 mps 662 mmHg 74%
    17:00 0°C° 0.1 mm 4 mps 662 mmHg 75%
    18:00 0°C° 0.1 mm 4 mps 662 mmHg 77%
    19:00 0°C° 0.2 mm 4 mps 662 mmHg 77%
    20:00 0°C° 0.2 mm 4 mps 662 mmHg 77%
    21:00 +1°C° 0.2 mm 3 mps 662 mmHg 78%
    22:00 +1°C° 0.1 mm 3 mps 662 mmHg 78%
    23:00 0°C° 0.1 mm 3 mps 662 mmHg 78%

    Day after tomorrow, 19 January, Friday

    Time Temperature Precipitation Wind Pressure Humidity
    00:00 0°C° 0.1 mm 3 mps 662 mmHg 78%
    01:00 0°C° 0 mm 3 mps 661 mmHg 79%
    02:00 0°C° 0 mm 3 mps 661 mmHg 79%
    03:00 0°C° 0 mm 3 mps 661 mmHg 80%
    04:00 0°C° 0.1 mm 3 mps 661 mmHg 80%
    05:00 0°C° 0.1 mm 3 mps 661 mmHg 80%
    06:00 +1°C° 0.1 mm 2 mps 661 mmHg 81%
    07:00 +1°C° 0.1 mm 2 mps 662 mmHg 79%
    08:00 +2°C° 0.1 mm 2 mps 662 mmHg 78%
    09:00 +3°C° 0.1 mm 2 mps 663 mmHg 77%
    10:00 +4°C° 0.1 mm 2 mps 663 mmHg 75%
    11:00 +4°C° 0.1 mm 3 mps 663 mmHg 72%
    12:00 +5°C° 0.1 mm 3 mps 663 mmHg 70%
    13:00 +5°C° 0.1 mm 3 mps 663 mmHg 70%
    14:00 +6°C° 0.1 mm 2 mps 663 mmHg 70%
    15:00 +6°C° 0.1 mm 2 mps 663 mmHg 69%
    16:00 +5°C° 0.3 mm 2 mps 664 mmHg 72%
    17:00 +4°C° 0.3 mm 2 mps 665 mmHg 75%
    18:00 +4°C° 0.3 mm 1 mps 665 mmHg 77%
    19:00 +3°C° 0.2 mm 2 mps 665 mmHg 78%
    20:00 +3°C° 0.2 mm 2 mps 666 mmHg 78%
    21:00 +2°C° 0.2 mm 2 mps 666 mmHg 79%
    22:00 +2°C° 0.1 mm 2 mps 667 mmHg 79%
    23:00 +2°C° 0.1 mm 2 mps 667 mmHg 79%

    20 January, Saturday

    Time Temperature Precipitation Wind Pressure Humidity
    00:00 +1°C° 0.1 mm 2 mps 667 mmHg 79%
    01:00 +1°C° 0 mm 2 mps 668 mmHg 78%
    02:00 +1°C° 0 mm 2 mps 668 mmHg 78%
    03:00 +1°C° 0 mm 2 mps 669 mmHg 77%
    04:00 +1°C° 0 mm 2 mps 669 mmHg 77%
    05:00 -1°C° 0 mm 2 mps 669 mmHg 77%
    06:00 -1°C° 0 mm 2 mps 670 mmHg 76%
    07:00 +1°C° 0 mm 2 mps 670 mmHg 75%
    08:00 +1°C° 0 mm 2 mps 671 mmHg 73%
    09:00 +1°C° 0 mm 2 mps 672 mmHg 71%
    10:00 +3°C° 0 mm 1 mps 672 mmHg 69%
    11:00 +4°C° 0 mm 1 mps 672 mmHg 67%
    12:00 +5°C° 0 mm 1 mps 672 mmHg 65%
    13:00 +5°C° 0 mm 1 mps 672 mmHg 64%
    14:00 +5°C° 0 mm 1 mps 672 mmHg 64%
    15:00 +6°C° 0 mm 1 mps 672 mmHg 63%
    16:00 +4°C° 0 mm 1 mps 672 mmHg 64%
    17:00 +3°C° 0 mm 1 mps 672 mmHg 64%
    18:00 +2°C° 0 mm 1 mps 672 mmHg 65%
    19:00 +1°C° 0 mm 1 mps 673 mmHg 64%
    20:00 +1°C° 0 mm 1 mps 673 mmHg 63%
    21:00 -1°C° 0 mm 2 mps 674 mmHg 62%
    22:00 -2°C° 0 mm 2 mps 674 mmHg 62%
    23:00 -2°C° 0 mm 2 mps 674 mmHg 62%

    21 January, Sunday

    Time Temperature Precipitation Wind Pressure Humidity
    00:00 -2°C° 0 mm 2 mps 674 mmHg 62%
    01:00 -2°C° 0 mm 2 mps 674 mmHg 63%
    02:00 -2°C° 0 mm 2 mps 674 mmHg 64%
    03:00 -2°C° 0 mm 2 mps 674 mmHg 64%
    04:00 -2°C° 0 mm 2 mps 674 mmHg 64%
    05:00 -2°C° 0 mm 2 mps 674 mmHg 65%
    06:00 -3°C° 0 mm 2 mps 673 mmHg 65%
    07:00 -2°C° 0 mm 2 mps 674 mmHg 63%
    08:00 -1°C° 0 mm 2 mps 674 mmHg 61%
    09:00 +1°C° 0 mm 2 mps 674 mmHg 60%
    10:00 +2°C° 0 mm 2 mps 674 mmHg 58%
    11:00 +4°C° 0 mm 2 mps 673 mmHg 57%
    12:00 +5°C° 0 mm 2 mps 673 mmHg 55%
    13:00 +5°C° 0 mm 2 mps 673 mmHg 55%
    14:00 +6°C° 0 mm 2 mps 672 mmHg 55%
    15:00 +6°C° 0 mm 2 mps 672 mmHg 54%
    16:00 +5°C° 0 mm 2 mps 672 mmHg 54%
    17:00 +3°C° 0 mm 2 mps 672 mmHg 54%
    18:00 +2°C° 0 mm 2 mps 672 mmHg 54%
    19:00 +2°C° 0 mm 2 mps 672 mmHg 53%
    20:00 +2°C° 0 mm 2 mps 672 mmHg 53%
    21:00 +1°C° 0 mm 2 mps 672 mmHg 52%
    22:00 +1°C° 0 mm 2 mps 672 mmHg 52%
    23:00 +1°C° 0 mm 2 mps 671 mmHg 52%

    22 January, Monday

    Time Temperature Precipitation Wind Pressure Humidity
    00:00 +1°C° 0 mm 2 mps 671 mmHg 52%
    01:00 +1°C° 0 mm 2 mps 671 mmHg 51%
    02:00 +1°C° 0 mm 2 mps 670 mmHg 51%
    03:00 +1°C° 0 mm 2 mps 670 mmHg 50%
    04:00 +1°C° 0 mm 2 mps 670 mmHg 49%
    05:00 +1°C° 0 mm 2 mps 669 mmHg 48%
    06:00 +1°C° 0 mm 2 mps 669 mmHg 48%
    07:00 +2°C° 0 mm 2 mps 669 mmHg 48%
    08:00 +3°C° 0 mm 2 mps 669 mmHg 48%
    09:00 +3°C° 0 mm 2 mps 668 mmHg 48%
    10:00 +5°C° 0 mm 2 mps 668 mmHg 48%
    11:00 +6°C° 0 mm 2 mps 668 mmHg 47%
    12:00 +7°C° 0 mm 2 mps 667 mmHg 47%
    13:00 +7°C° 0 mm 2 mps 667 mmHg 46%
    14:00 +7°C° 0 mm 2 mps 667 mmHg 46%
    15:00 +8°C° 0 mm 2 mps 666 mmHg 46%
    16:00 +6°C° 0 mm 2 mps 666 mmHg 45%
    17:00 +4°C° 0 mm 2 mps 666 mmHg 44%
    18:00 +3°C° 0 mm 2 mps 666 mmHg 43%
    19:00 +2°C° 0 mm 2 mps 666 mmHg 44%
    20:00 +2°C° 0 mm 2 mps 666 mmHg 44%
    21:00 +2°C° 0 mm 2 mps 666 mmHg 44%
    22:00 +1°C° 0 mm 2 mps 666 mmHg 45%
    23:00 +1°C° 0 mm 2 mps 666 mmHg 47%
    Show more